Location: Haliburton Scout Reserve
(45.0900°N, 78.3200°W)
Time: 09:11:36
(UTC-04:00)

Explorer 11/Cluster Stage 4 - Pass Details

Date: 31 January 2023
Orbit: 466 x 1241 km, 28.8° (Epoch: 31 March)

Event Time Altitude Azimuth Distance (km) Brightness Sun altitude
Rises 05:30:25 0° 208° (SSW) 4,123 10.0 -22.0°
Reaches altitude 10° 05:35:07 10° 185° (S) 3,198 9.7 -21.2°
Maximum altitude 05:38:44 14° 158° (SSE) 2,921 9.8 -20.6°
Drops below altitude 10° 05:42:19 10° 131° (SE) 3,160 10.4 -20.0°
Sets 05:46:52 0° 108° (ESE) 4,038 11.7 -19.2°
